Location: Northam
(31.6525°S, 116.6655°E)
Time: 05:21:41
(UTC+08:00)

Vanguard 1 - Visible Passes

Search period start: 14 June 2021 00:00
Search period end: 24 June 2021 00:00
Orbit: 650 x 3832 km, 34.2° (Epoch: 12 June)

Date Brightness Start Highest point End Pass type
(mag) Time Alt. Az. Time Alt. Az. Time Alt. Az.
14 Jun 13.8 18:45:57 10° W 19:01:58 38° NW 19:22:18 10° NNE visible
14 Jun 14.6 21:24:33 10° NW 21:27:13 10° NW 21:29:55 10° NW visible
15 Jun 14.1 19:08:13 10° W 19:23:16 30° NW 19:41:39 10° NNE visible
16 Jun 13.4 17:05:15 10° WSW 17:19:13 53° NNW 17:40:48 10° NE visible
16 Jun 14.3 19:31:16 10° W 19:44:36 22° NW 20:00:10 10° N visible
17 Jun 13.7 17:26:41 10° W 17:40:36 44° NNW 18:01:10 10° NNE visible
17 Jun 14.5 19:55:58 10° WNW 20:06:00 15° NW 20:17:07 10° NNW visible
18 Jun 14.0 17:48:27 10° W 18:01:59 35° NW 18:21:03 10° NNE visible
19 Jun 14.3 18:10:43 10° W 18:23:24 27° NW 18:40:17 10° NNE visible
20 Jun 14.5 18:33:53 10° WNW 18:44:53 20° NW 18:58:33 10° N visible
21 Jun 14.7 18:59:11 10° WNW 19:06:28 13° NW 19:14:44 10° NNW visible
